+ View the NASA Portal
+ Center for Near-Earth Object Studies
JPL Small-Body Database Browser
Search:
[
help
]
26380 (1999 JY65)
Classification:
Main-belt Asteroid
SPK-ID:
2026380
[
Ephemeris
|
Orbit Diagram
|
Orbital Elements
|
Mission Design
|
Physical Parameters
|
Discovery Circumstances
|
Close-Approach Data
]
[ show orbit diagram ]
Orbital Elements at Epoch 2459000.5 (2020-May-31.0) TDB
Reference:
JPL 33
(heliocentric ecliptic J2000)
Element
Value
Uncertainty (1-sigma)
Units
e
.3008350745679925
3.2316e-08
a
2.754208243310808
1.0851e-08
au
q
1.925645801058621
8.8921e-08
au
i
12.89319673926111
3.8208e-06
deg
node
205.5827228729164
1.6075e-05
deg
peri
124.0811086582721
1.6957e-05
deg
M
139.797710133829
5.5327e-06
deg
t
p
2458352.177424541281
(2018-Aug-21.67742454)
2.4866e-05
TDB
period
1669.527540484801
4.57
9.8665e-06
2.701e-08
d
yr
n
.2156298660970052
1.2743e-09
deg/d
Q
3.582770685562994
1.4115e-08
au
Orbit Determination Parameters
# obs. used (total)
1850
data-arc span
25115 days (68.76 yr)
first obs. used
1952-02-01
last obs. used
2020-11-05
planetary ephem.
DE431
SB-pert. ephem.
SB431-N16
condition code
0
norm. resid. RMS
.44967
source
ORB
producer
Otto Matic
solution date
2020-Dec-18 03:28:54
Additional Information
Earth MOID
= .949365 au
Jupiter MOID
= 2.0127 au
T_jup
= 3.242
[ show covariance matrix ]
[
Ephemeris
|
Orbit Diagram
|
Orbital Elements
|
Mission Design
|
Physical Parameters
|
Discovery Circumstances
|
Close-Approach Data
]
Physical Parameter Table
Parameter
Symbol
Value
Units
Sigma
Reference
Notes
absolute magnitude
H
13.2
n/a
MPO416973
rotation period
rot_per
13.653
h
n/a
LCDB (Rev. 2020-October); Warner et al., 2009
Published Reference List:
[Brinsfield, J.W.; Sergison, D. (2010) Minor Planet Bull. 37, 48-49.]
26380 (1999 JY65)
Discovered 1999-May-12 by LINEAR at Socorro
Reference:
20010705/Numbers.arc
Last Updated:
2004-04-19
[ show close-approach data ]
Alternate Designations
1999 JY65
= 2000 QV150
[
Ephemeris
|
Orbit Diagram
|
Orbital Elements
|
Mission Design
|
Physical Parameters
|
Discovery Circumstances
|
Close-Approach Data
]
2021-Jan-24 23:13 UT
(server date/time)
Site Manager:
Ryan S. Park
Webmaster
:
Alan B. Chamberlin